Main page
METAR-TAF:

METAR-TAF

Airports :

Poços de Caldas, Minas Gerais, Brazil

latitude: 21-51S, longitude: 046-34W, elevation: 1260 m

Current weather observation

The report was made 4 hours and 29 minutes ago, at 20:00 UTC
Wind 5 kt from the North/Northwest
Temperature 22°C
Humidity 100%
Pressure 1017 hPa
Visibility 10 km or more
Few clouds at a height of 2000 ft
Few clouds at a height of 3000 ft, Cumulonimbus.
Broken clouds at a height of 8000 ft
thunderstorm, showers in vicinity

METAR: SBPC 182000Z 33005KT 9999 TS VCSH FEW020 FEW030CB BKN080 22/22 Q1017

Time: 21:29 (00:29 UTC)


TAF: missing

Weather observations and forecasts of more than 4000 airports (METAR and TAF reports).

The available stations are represented by yellow and red dots on the map.

Hover mouse over dot to see the name of the station.

Then click to see weather observations and forecasts.

To change the map : click on the green buttons with a black cross to zoom in, on the green button with a dash to zoom out, or on the green arrows for adjacent maps.


METAR-TAF: